Theta_e
301 300 298 298 297 296 297 298 298 298 298 298 300 302 303 299 295 297 298 298 300 302 305 313 314 314 320 319 326 325 324 323 321 324 325 323 323 323 330 332 333 332 337 336 331
301 300 298 297 297 296 297 297 298 297 297 297 302 304 304 304 299 296 297 308 305 303 303 309 313 313 318 321 325 325 324 324 322 322 322 323 323 323 324 330 336 337 336 336 330
300 299 298 297 297 296 297 297 297 296 297 297 302 304 304 303 301 297 306 309 309 307 307 307 310 315 315 322 323 325 327 323 322 321 322 321 322 322 322 327 331 337 336 335 329
299 299 299 298 297 296 297 296 296 297 297 297 295 295 302 302 301 305 308 305 304 308 308 309 310 314 311 318 323 326 324 324 323 323 320 321 322 322 322 322 321 331 335 335 330
298 298 298 297 296 297 296 296 297 296 295 295 295 299 302 302 302 299 303 304 304 305 308 309 311 314 313 313 322 324 323 322 322 322 321 321 321 320 320 323 327 332 335 335 332
298 298 297 297 297 296 296 297 296 296 296 296 300 301 303 303 300 305 305 304 304 305 307 308 310 312 311 310 320 324 324 323 321 321 322 321 320 320 320 321 328 332 335 333 331
297 296 296 296 296 296 296 297 296 297 300 302 301 301 304 305 305 305 305 306 305 305 306 306 310 312 312 309 311 321 325 324 323 323 322 320 320 320 320 320 321 335 335 333 329
297 296 296 296 296 296 296 297 297 303 303 304 303 305 305 304 305 305 305 305 305 306 307 308 312 313 309 310 313 316 322 327 324 323 321 318 321 317 319 318 319 321 334 333 331
297 297 296 296 296 296 297 296 297 300 303 305 305 304 304 305 306 306 305 305 306 307 308 309 313 313 309 311 314 316 322 323 324 322 319 318 318 317 317 317 318 319 328 333 334
296 296 296 296 296 296 297 296 297 298 301 305 305 304 304 304 306 305 306 307 307 307 309 311 311 310 305 312 316 317 317 321 322 321 319 320 318 317 317 318 318 317 319 329 334
296 297 296 296 295 297 296 296 296 297 301 302 303 303 305 305 307 306 308 308 308 309 311 306 310 306 305 311 314 314 316 317 317 320 320 319 318 317 318 318 317 316 316 317 333
296 296 296 295 296 298 299 297 298 299 301 300 303 305 303 306 307 307 308 309 309 308 307 307 306 306 309 311 312 314 315 316 315 319 319 319 319 318 318 319 319 316 317 317 317
295 296 296 295 297 298 302 298 298 300 301 301 302 304 303 307 307 306 307 308 310 309 307 304 306 306 307 310 312 312 313 314 316 317 314 315 316 316 317 318 318 318 317 318 316
295 296 295 295 298 297 300 297 297 300 295 295 300 302 302 307 308 307 305 307 310 311 309 309 309 305 306 308 309 311 312 314 314 316 316 313 315 313 314 315 316 317 317 317 317
295 295 295 295 296 298 297 296 299 302 286 295 300 302 303 307 306 307 307 307 309 311 310 310 308 306 307 308 308 311 312 313 313 312 312 313 313 312 312 314 315 315 315 316 317
296 295 295 295 296 295 296 299 301 289 284 298 300 300 303 305 306 307 307 307 307 308 309 309 309 307 307 308 309 311 310 311 310 310 310 311 312 310 311 312 313 314 315 315 316
296 295 296 295 295 295 298 301 290 288 291 292 298 300 303 303 306 306 307 307 307 305 304 308 309 309 307 309 308 310 309 309 309 308 309 309 310 309 310 309 311 308 311 313 315
296 295 295 295 296 295 300 291 287 284 287 297 299 301 302 302 305 305 304 307 306 307 308 306 305 310 308 308 309 310 309 308 309 312 310 309 311 310 309 309 310 309 310 309 310
296 296 296 296 296 296 299 289 290 286 297 298 298 294 295 300 303 303 302 303 305 305 308 308 309 308 309 308 307 309 308 307 306 300 307 307 308 307 308 308 308 308 308 308 308
297 296 297 296 296 297 292 290 289 295 297 298 292 297 290 300 299 298 303 301 303 304 305 308 306 307 308 309 308 309 308 306 304 302 306 306 307 307 305 306 304 303 304 305 306
297 297 296 296 296 296 289 284 288 296 297 297 297 293 297 300 302 300 301 302 302 303 306 305 306 307 308 309 310 309 308 308 306 305 308 307 305 303 304 304 303 303 304 304 304
297 290 296 296 295 296 284 285 295 296 298 296 296 298 297 297 298 300 301 302 302 302 304 304 308 305 308 308 309 310 311 309 306 306 306 307 306 303 303 303 303 304 305 305 306
297 296 297 297 292 283 287 286 294 295 297 297 295 297 298 299 296 298 296 300 300 302 303 304 307 308 309 309 308 309 309 310 309 308 310 307 305 302 302 302 304 304 305 306 307
297 292 296 296 298 290 284 285 289 295 296 298 297 298 296 295 293 293 298 299 299 299 303 304 306 307 306 308 308 309 310 310 309 308 308 309 309 307 306 303 304 305 305 306 306
297 293 295 291 293 292 289 288 290 290 296 298 296 296 296 291 294 293 292 297 299 298 299 297 303 300 302 303 305 308 307 309 311 309 308 308 307 307 307 306 307 307 306 306 306
297 294 294 293 295 293 292 287 293 295 293 293 295 297 297 295 296 291 297 297 295 296 297 297 292 296 294 302 303 304 303 303 305 308 311 309 310 308 308 307 307 306 306 308 307
297 296 296 294 294 290 290 291 293 296 296 296 296 296 297 297 297 297 296 297 297 297 292 292 299 289 289 293 296 294 299 303 303 305 306 307 306 305 305 306 307 308 308 308 308
Wind_Speed
10 11 11 12 13 15 16 18 20 21 22 23 24 23 24 24 24 24 28 27 22 20 18 19 11 8 11 12 12 13 4 6 6 1 2 11 15 25 1 8 9 5 13 13 34
10 11 12 13 14 17 18 19 21 23 24 25 25 24 23 24 26 32 25 15 20 18 22 24 18 8 7 12 10 7 8 16 9 3 3 13 13 20 13 8 9 18 15 27 40
11 12 12 13 15 17 19 21 23 25 26 27 25 23 21 21 26 16 0 6 8 9 23 26 24 15 14 13 11 7 13 16 27 17 2 10 19 21 20 1 2 23 31 34 40
12 12 13 14 15 17 20 23 26 26 26 26 26 26 20 14 6 3 9 16 20 12 19 23 24 20 4 10 17 6 12 25 26 20 7 8 15 23 6 12 20 17 25 32 39
11 12 14 14 15 18 21 24 24 26 27 27 24 20 15 9 23 21 20 22 21 23 16 23 22 21 6 8 10 7 8 18 23 19 14 16 7 10 27 22 14 16 26 29 36
11 12 13 15 17 19 22 23 25 28 24 19 15 10 8 13 12 8 19 25 28 21 21 16 22 25 7 9 15 17 10 14 15 11 13 13 21 10 26 16 11 11 22 22 33
11 12 13 15 17 20 23 23 25 22 16 15 12 10 13 19 18 20 22 18 19 20 19 27 26 24 12 5 15 15 8 8 12 12 3 8 14 8 28 27 24 15 17 17 22
11 12 13 15 18 21 23 24 20 10 15 9 6 8 9 16 21 21 20 25 19 11 21 22 17 23 16 6 1 9 1 5 9 16 9 10 15 11 19 20 23 13 17 14 18
10 11 13 15 18 21 22 23 11 9 16 6 9 17 9 22 26 28 24 21 17 8 21 17 10 8 13 3 2 5 5 7 8 24 10 8 7 18 28 23 19 20 18 19 17
10 12 12 14 18 20 22 21 16 12 15 8 10 4 9 27 30 27 26 12 8 9 9 15 9 4 1 8 7 10 5 11 6 13 10 14 14 10 17 14 21 19 21 21 25
10 11 12 14 17 16 21 23 24 7 12 4 10 8 20 29 20 30 19 13 9 3 4 7 13 8 7 7 2 9 5 5 5 9 10 13 12 6 18 19 19 17 11 11 27
11 12 12 13 14 15 17 15 11 6 9 11 10 8 24 25 14 29 18 7 8 4 16 4 2 2 6 5 4 4 2 2 5 14 4 8 11 7 8 12 27 19 13 17 13
11 10 11 11 8 12 13 16 14 2 4 14 12 11 26 15 5 20 18 12 9 9 5 6 6 6 2 5 5 2 2 4 4 5 1 6 5 8 10 19 30 30 22 23 16
11 10 11 10 4 7 2 17 10 3 3 9 12 12 26 4 7 16 14 4 5 8 3 4 6 6 5 2 2 3 2 8 15 8 4 4 3 6 10 16 19 30 29 29 22
9 8 8 8 8 7 15 18 5 4 6 14 8 16 21 10 10 12 15 7 9 8 1 3 7 3 5 3 3 3 8 6 5 5 3 0 3 6 5 9 14 19 23 31 29
7 7 7 7 8 12 16 2 7 6 3 7 9 11 12 10 17 17 12 9 4 4 5 2 6 5 2 5 2 3 9 7 5 3 2 4 4 4 3 5 6 16 24 32 32
5 6 7 7 9 12 9 1 5 6 4 9 5 9 6 11 10 11 11 13 7 5 6 7 6 7 4 5 7 4 5 3 4 3 3 5 2 6 6 5 1 5 4 9 19
5 5 6 7 12 12 4 5 8 4 4 5 5 8 7 10 4 11 7 7 10 7 4 3 4 8 8 3 4 2 3 5 6 3 3 1 4 5 8 3 2 3 8 4 3
4 6 5 9 11 8 1 6 7 6 4 4 6 6 7 6 4 5 6 10 7 12 5 2 3 6 5 5 3 4 2 3 5 3 3 3 4 7 8 2 2 3 4 2 2
4 5 2 6 8 4 5 4 3 2 3 3 3 4 4 8 7 5 7 7 10 10 7 4 3 4 6 7 5 3 2 3 3 2 2 4 3 4 7 7 6 7 7 3 2
3 3 1 5 3 5 3 4 2 3 2 3 0 3 2 3 2 5 6 2 8 8 9 8 2 3 2 2 0 3 2 1 2 4 2 1 3 2 2 3 5 6 8 6 6
2 1 2 1 5 4 2 4 2 3 3 2 2 3 0 3 5 3 4 4 16 11 4 5 2 2 2 1 4 1 2 2 3 3 1 2 4 2 1 3 5 6 8 8 6
2 1 1 1 3 1 1 2 1 3 2 3 1 2 2 3 2 4 4 7 17 7 3 5 2 2 2 1 1 1 4 2 5 2 3 3 4 2 3 4 7 7 7 8 8
3 2 2 3 4 6 5 2 1 2 1 3 1 2 3 4 2 2 5 3 10 12 9 2 3 4 1 2 2 2 3 2 5 2 1 5 5 8 7 6 4 4 4 5 10
4 1 2 1 1 5 4 5 3 2 2 3 2 2 2 3 3 3 3 5 6 11 11 4 3 3 5 5 3 3 6 3 9 9 6 4 11 7 5 8 8 9 7 9 10
8 7 5 2 6 6 1 4 6 3 5 3 3 5 4 3 3 4 3 1 3 7 5 6 2 3 4 6 6 3 6 7 7 8 11 13 16 10 17 17 9 13 12 14 12
10 8 4 9 3 4 4 5 8 7 6 6 7 2 2 2 1 6 9 11 5 2 2 3 3 4 5 5 5 5 5 4 4 4 3 7 5 6 7 9 11 14 17 17 14
Wind_Direction
342 341 341 341 342 342 342 339 338 334 330 326 324 323 325 321 311 303 287 290 287 280 249 245 247 195 162 187 191 176 152 197 253 291 352 1 2 347 351 105 82 92 159 170 155
335 335 337 338 339 339 339 337 334 331 326 323 319 320 321 320 312 297 308 310 294 259 245 247 253 246 206 178 186 191 188 190 232 145 47 344 354 343 337 101 72 93 122 150 157
333 334 336 338 337 335 336 335 332 331 325 320 316 316 315 317 316 305 257 329 315 267 234 243 242 242 222 188 180 197 209 184 227 230 316 336 322 335 333 358 179 144 147 157 163
330 331 335 339 335 334 333 334 334 330 323 319 320 317 310 303 280 19 275 304 307 286 237 241 235 228 215 207 176 184 221 200 226 262 331 334 320 319 310 299 319 210 173 166 170
330 333 340 340 335 333 333 336 336 327 322 321 321 326 313 283 263 317 309 296 294 282 245 225 228 218 206 212 197 203 176 193 202 265 295 296 302 303 303 313 337 195 177 176 179
334 335 340 337 334 333 335 342 337 327 333 327 329 331 321 275 320 293 293 293 289 273 242 237 232 218 202 253 205 183 167 171 179 197 262 282 283 311 288 303 349 185 182 183 185
335 335 337 335 334 334 338 346 337 341 334 336 327 306 297 277 291 303 297 302 309 268 243 239 229 204 216 301 232 221 175 143 154 159 186 332 274 239 272 291 293 204 187 194 189
337 338 337 335 334 335 340 350 345 6 347 357 4 331 273 309 309 305 310 303 295 261 218 230 217 216 201 275 79 183 163 188 167 146 189 155 267 271 275 300 305 261 206 205 201
333 335 336 335 334 336 342 352 358 5 356 15 358 321 283 329 325 315 306 286 279 269 203 233 231 201 217 186 68 169 152 169 151 169 144 151 248 263 262 273 291 282 220 214 207
332 336 340 338 336 337 344 351 5 12 11 359 349 348 323 324 331 338 346 330 202 179 215 225 142 184 302 165 185 189 129 182 149 179 144 189 234 271 301 314 297 300 243 215 207
324 331 339 339 339 344 347 1 15 7 21 321 300 265 318 336 334 356 35 84 128 132 171 37 146 180 172 144 133 133 170 159 187 173 157 193 223 214 263 300 297 275 275 247 214
325 328 335 338 341 356 360 44 28 320 314 3 312 284 343 338 332 6 43 53 91 105 106 95 197 208 124 139 267 65 65 297 7 150 112 206 226 203 214 238 266 270 274 277 269
318 322 330 338 342 9 347 14 355 17 274 321 340 343 347 335 355 9 30 41 52 66 70 137 181 168 153 149 228 168 170 191 149 151 67 136 241 204 219 217 244 264 262 263 255
318 325 331 344 346 358 344 340 340 117 50 331 347 354 344 13 359 1 12 45 57 53 226 358 353 155 133 127 141 35 192 119 138 163 191 172 252 237 215 214 220 240 247 246 242
324 328 335 346 345 14 337 338 108 114 53 313 327 335 346 46 312 359 12 57 79 44 70 349 9 120 96 114 87 228 112 110 98 99 98 264 95 270 240 224 222 235 235 241 233
327 331 342 345 358 355 331 21 110 45 301 333 327 331 356 16 358 350 11 36 58 70 34 346 325 46 352 32 316 135 87 55 62 79 52 243 145 279 273 235 241 232 232 238 239
329 332 339 352 344 347 349 149 41 88 334 311 325 326 341 359 12 359 10 40 35 48 25 358 343 331 15 62 7 79 68 20 8 12 213 309 222 237 248 333 77 127 143 238 240
332 332 330 347 347 342 351 54 69 238 240 294 308 324 25 355 8 18 19 24 18 22 77 87 353 352 342 79 185 64 95 147 178 198 231 251 237 254 241 211 284 112 133 152 202
317 324 327 346 342 345 327 53 181 195 266 311 336 33 343 338 353 36 51 20 0 10 40 51 36 313 31 340 12 283 86 160 104 12 56 231 278 319 281 214 119 58 60 34 270
320 314 313 341 340 352 64 153 152 184 351 345 100 348 27 336 25 30 26 360 348 6 338 359 76 357 306 337 343 90 294 69 5 109 246 288 250 234 358 58 54 40 25 31 3
313 324 354 340 1 41 114 208 178 177 119 60 157 25 360 8 2 24 354 16 356 334 10 7 108 319 353 349 324 49 359 23 156 147 172 299 268 263 119 79 77 22 14 357 343
228 59 335 4 63 61 93 180 114 53 118 105 42 359 48 327 4 70 36 2 357 339 7 12 1 129 210 144 111 70 278 55 126 281 232 143 277 54 59 80 62 38 24 22 14
192 172 354 252 123 82 270 338 151 129 191 158 204 116 302 346 103 33 328 321 6 23 9 333 32 92 115 82 99 209 257 210 107 80 229 147 259 149 83 70 62 56 29 29 26
164 80 73 76 100 128 133 252 39 191 230 152 101 315 41 16 8 262 349 331 346 23 16 315 48 19 67 16 302 293 225 213 151 184 245 223 303 309 15 49 52 20 1 11 6
178 137 162 191 331 110 106 155 137 151 232 128 36 161 154 56 14 3 325 329 358 21 7 76 41 354 281 272 280 233 295 245 210 237 201 244 245 272 304 307 293 266 253 287 317
167 153 119 120 115 104 341 227 161 172 139 251 154 202 180 143 171 233 13 77 248 357 24 357 323 35 314 354 18 310 289 282 258 258 256 274 282 289 303 313 297 287 293 306 316
178 155 162 163 165 104 209 186 196 159 207 179 179 144 181 196 302 284 282 275 269 51 352 54 12 33 291 336 350 342 245 238 264 235 229 251 269 284 306 324 316 344 331 317 306